Find Starlink 5754

NORAD ID: 55579 Int'l Des: 2023-020 Owner: SPXS Country: US Constellation: starlink operational
LEOCIRCULAR

Live Position

Loading 3D Globe...

About Starlink 5754

Description loading...

Upcoming Passes

Passes for default location (London). Set your location on the main map for personalized predictions.

Altitude History

Loading altitude history...

Two-Line Element Set

1 55579U 23020L 26126.16693572 .00001145 00000-0 51132-4 0 9991
2 55579 43.0058 40.5576 0001208 261.0231 99.0484 15.27581078177706
Epoch: May 6, 2026 • Age: 14 hours

Current Status

Altitude 490.2 km
Velocity 7.62 km/s
Sub-Earth Point -29.20°S, 132.87°W
Launch Date Feb 12, 2023
Age 3.2 years
Type internet

Technical Details

Classification Payload
Mass 305.00 kg
Dry Mass 290.00 kg
Total Mass 305.00 kg
Length 0.20 m
Diameter 2.80 m
Span 9.00 m
Shape Box + pan
Manufacturer SPXS
Bus Type Starlink
Phase Status In Orbit
Owner/State SPXS/US

Most Searched